Showing default

AT&T T-16, 44333

Orbit data source: Space-Track

AT&T T-16, 44333 is a payload satellite owned by DirecTV (US) in GEO that was launched on Thu, 20 Jun 2019 UTC via an ARIANE 5ECA launch vehicle from the French Guiana (FRGUI). Payload-class satellites include a variety of spacecraft equipped with specific instruments for various scientific and technological missions. These include communications satellites like Starlink; space stations such as the ISS; scientific satellites like the Hubble; Earth observation satellites from companies like Planet Labs, Umbra, and HawkEye 360; GPS; miniature CubeSats for education and research; and military/defense satellites.

Loading next visibility...
Identifier
44333, 2019-034A
Orbit
GEO
Country
Flag of USUS
Related business
Manufacturer
Airbus/Toulouse
Mission
Operational Commercial Communications
Bus & Motor
EUROSTAR 3000LXH, R-4D?
Mass
6,330 kg wet, ~3,000 kg dry
Launch date (UTC)
2019-06-20 (7 years ago)
Launch vehicle
ARIANE 5ECA
Launch site
French Guiana (FRGUI)
Object type
Payload
Rocket body
Debris
Shape & HBR
Box + 2 Pan, 15.4 m
Radar Cross Section
30.523 m², Large (>1 m²)

Expand to show TLE details & history
Last TLE update: 2 days ago

TLE from 2 days ago
0 AT&T T-16
1 44333U 19034A   26171.35461541 -.00000120  00000-0  00000+0 0  9993
2 44333   0.0207  65.5499 0000650 225.8469   3.9721  1.00270065 25665
Epoch: 2026-06-20T08:30Z
TLE epoch observation values (Epoch: 2026-06-20T08:30:38.771Z)
Latitude
-0.02813°
Longitude
-100.8502°
Altitude
35,783.829 km
Speed
3.075 km/s
True Right ascension
19h 41m 31s
True Declination
0° 01' 41"
Sunlit
Object was in daylight at epoch
Visualization orbit readout
Latitude
Unknown
Longitude
Unknown
Altitude
Unknown
Speed
Unknown
Apparent Right ascension
Unknown
Apparent Declination
Unknown
Sunlit
N/A
Visualization observer readout
Local Sidereal Time
21:28:23
Azimuth
Unknown
Elevation
Unknown
Doppler factor
Unknown
Orbital elements
Apogee altitude
35,790.888 km
Perigee altitude
35,785.407 km
Semi-major axis
42,166.285 km
Eccentricity
0.00007
Inclination
0.0207°
RAAN
65.5499°
Arg. of periapsis
225.8469°
True anomaly
3.97262°
Mean anomaly
3.9721°
Eccentric anomaly
3.97236°
Mean motion
0.25067 °/min
Orbital period
1,436.17 mins
BSTAR
0
Loading maneuver chart data...
Computing Atmospheric mass density...
Loading historical data...
Loading historical data...
Loading historical data...
Loading historical data...
Loading historical data...
Loading historical data...
Loading historical data...
Other satellites on launch #34 in the year 2019 (2019-06-20 UTC)

Documentation

Showing up to 5 results
|